Saratoga, WY

1:56 PM MDT on August 28, 2016 (GMT -0600)
Shively

Weather History for KSAA - August, 2014

Change the Weather History Date:

Monday, August 18, 2014

  Actual Average Record
Temperature  
Mean Temperature 64 °F -  
Max Temperature 82 °F 80 °F 82 °F (2014)
Min Temperature 46 °F 48 °F 33 °F (2015)
Degree Days  
Heating Degree Days 1    
Growing Degree Days 14 (Base 50)    
Moisture  
Dew Point 34 °F    
Average Humidity 37    
Maximum Humidity 62    
Minimum Humidity 15    
Precipitation  
Precipitation 0.00 in - - ()
Sea Level Pressure  
Sea Level Pressure 30.21 in    
Wind  
Wind Speed - (North)    
Max Wind Speed -    
Max Gust Speed -    
Visibility 10 miles    
Events      
Averages and records for this station are not official NWS values.
T = Trace of Precipitation, MM = Missing Value Source: NWS Daily Summary

Daily Weather History Graph

Daily Weather History Graph

Search for Another Location

Airport or City:

Trip Planner

Search our weather history database for the weather conditions in past years. The results will help you decide how hot, cold, wet, or windy it might be!

Date:

Astronomy

Aug. 18, 2014 Rise Set
Actual Time 6:19 AM MDT 8:02 PM MDT
Civil Twilight 5:49 AM MDT 8:31 PM MDT
Nautical Twilight 5:14 AM MDT 9:07 PM MDT
Astronomical Twilight 4:35 AM MDT 9:45 PM MDT
Moon 12:27 AM MDT (8/18) 3:09 PM MDT (8/18)
Length of Visible Light 14h 41m
Length of Day
13h 42m
Last Quarter, 38% of the Moon is Illuminated
Aug 18
Last Quarter
Aug 25
New
Sep 2
First Quarter
Sep 8
Full
Sep 15
Last Quarter

Hourly Weather History & Observations

Time (MDT) Temp. Dew Point Humidity Pressure Visibility Wind Dir Wind Speed Gust Speed Precip Events Conditions
12:15 AM 50.0 °F 37.4 °F 62% 30.25 in 10.0 mi North - - N/A   Clear
12:35 AM 50.0 °F 35.6 °F 58% 30.25 in 10.0 mi North - - N/A   Clear
12:55 AM 50.0 °F 35.6 °F 58% 30.25 in 10.0 mi North - - N/A   Clear
1:15 AM 50.0 °F 35.6 °F 58% 30.25 in 10.0 mi North - - N/A   Clear
1:35 AM 50.0 °F 33.8 °F 54% 30.25 in 10.0 mi North - - N/A   Clear
1:55 AM 51.8 °F 32.0 °F 47% 30.25 in 10.0 mi North - - N/A   Scattered Clouds
2:15 AM 51.8 °F 32.0 °F 47% 30.25 in 10.0 mi North - - N/A   Clear
2:40 AM 51.8 °F 33.8 °F 50% 30.24 in 10.0 mi North - - N/A   Scattered Clouds
2:55 AM 50.0 °F 33.8 °F 54% 30.24 in 10.0 mi North - - N/A   Clear
3:15 AM 48.2 °F 33.8 °F 58% 30.24 in 10.0 mi North - - N/A   Scattered Clouds
3:35 AM 50.0 °F 33.8 °F 54% 30.24 in 10.0 mi North - - N/A   Scattered Clouds
3:55 AM 48.2 °F 33.8 °F 58% 30.24 in 10.0 mi North - - N/A   Scattered Clouds
4:15 AM 46.4 °F 33.8 °F 62% 30.24 in 10.0 mi North - - N/A   Scattered Clouds
4:35 AM 46.4 °F 33.8 °F 62% 30.24 in 10.0 mi North - - N/A   Scattered Clouds
4:55 AM 46.4 °F 33.8 °F 62% 30.24 in 10.0 mi North - - N/A   Scattered Clouds
5:15 AM 46.4 °F 33.8 °F 62% 30.24 in 10.0 mi North - - N/A   Clear
5:35 AM 48.2 °F 33.8 °F 58% 30.24 in 10.0 mi North - - N/A   Scattered Clouds
5:55 AM 46.4 °F 33.8 °F 62% 30.24 in 10.0 mi North - - N/A   Clear
6:15 AM 46.4 °F 33.8 °F 62% 30.24 in 10.0 mi North - - N/A   Clear
6:35 AM 46.4 °F 33.8 °F 62% 30.25 in 10.0 mi North - - N/A   Clear
6:55 AM 50.0 °F 33.8 °F 54% 30.25 in 10.0 mi North - - N/A   Clear
7:15 AM 51.8 °F 33.8 °F 50% 30.25 in 10.0 mi North - - N/A   Clear
7:35 AM 55.4 °F 33.8 °F 44% 30.25 in 10.0 mi North - - N/A   Clear
7:55 AM 55.4 °F 37.4 °F 51% 30.26 in 10.0 mi North - - N/A   Clear
8:15 AM 53.6 °F 37.4 °F 54% 30.26 in 10.0 mi North - - N/A   Clear
8:35 AM 59.0 °F 37.4 °F 45% 30.26 in 10.0 mi North - - N/A   Clear
8:55 AM 62.6 °F 35.6 °F 37% 30.26 in 10.0 mi North - - N/A   Clear
9:15 AM 62.6 °F 37.4 °F 39% 30.26 in 10.0 mi North - - N/A   Clear
9:35 AM 68.0 °F 33.8 °F 28% 30.25 in 10.0 mi North - - N/A   Clear
9:55 AM 68.0 °F 33.8 °F 28% 30.25 in 10.0 mi North - - N/A   Clear
10:15 AM 69.8 °F 41.0 °F 35% 30.25 in 10.0 mi North - - N/A   Clear
10:35 AM 69.8 °F 37.4 °F 31% 30.25 in 10.0 mi North - - N/A   Clear
10:55 AM 71.6 °F 33.8 °F 25% 30.25 in 10.0 mi North - - N/A   Clear
11:15 AM 71.6 °F 32.0 °F 23% 30.25 in 10.0 mi North - - N/A   Clear
11:35 AM 73.4 °F 35.6 °F 25% 30.24 in 10.0 mi North - - N/A   Clear
11:55 AM 77.0 °F 35.6 °F 22% 30.23 in 10.0 mi North - - N/A   Clear
12:15 PM 77.0 °F 33.8 °F 21% 30.23 in 10.0 mi North - - N/A   Clear
12:35 PM 78.8 °F 32.0 °F 18% 30.22 in 10.0 mi North - - N/A   Clear
12:55 PM 78.8 °F 32.0 °F 18% 30.22 in 10.0 mi North - - N/A   Clear
1:15 PM 78.8 °F 32.0 °F 18% 30.21 in 10.0 mi North - - N/A   Scattered Clouds
1:35 PM 78.8 °F 30.2 °F 17% 30.21 in 10.0 mi North - - N/A   Mostly Cloudy
1:55 PM 78.8 °F 30.2 °F 17% 30.21 in 10.0 mi North - - N/A   Scattered Clouds
2:15 PM 78.8 °F 32.0 °F 18% 30.20 in 10.0 mi North - - N/A   Scattered Clouds
2:35 PM 82.4 °F 32.0 °F 16% 30.19 in 10.0 mi North - - N/A   Clear
2:55 PM 82.4 °F 30.2 °F 15% 30.19 in 10.0 mi North - - N/A   Clear
3:15 PM 78.8 °F 30.2 °F 17% 30.17 in 10.0 mi North - - N/A   Clear
3:35 PM 80.6 °F 30.2 °F 16% 30.17 in 10.0 mi North - - N/A   Clear
3:55 PM 78.8 °F 30.2 °F 17% 30.17 in 10.0 mi North - - N/A   Clear
4:15 PM 80.6 °F 32.0 °F 17% 30.17 in 10.0 mi North - - N/A   Clear
4:35 PM 78.8 °F 32.0 °F 18% 30.17 in 10.0 mi North - - N/A   Clear
4:55 PM 78.8 °F 32.0 °F 18% 30.17 in 10.0 mi North - - N/A   Scattered Clouds
5:15 PM 77.0 °F 35.6 °F 22% 30.17 in 10.0 mi North - - N/A   Scattered Clouds
5:35 PM 75.2 °F 32.0 °F 21% 30.18 in 10.0 mi North - - N/A   Overcast
5:55 PM 77.0 °F 30.2 °F 18% 30.17 in 10.0 mi North - - N/A   Scattered Clouds
6:15 PM 73.4 °F 32.0 °F 22% 30.16 in 10.0 mi North - - N/A   Clear
6:35 PM 73.4 °F 32.0 °F 22% 30.15 in 10.0 mi North - - N/A   Clear
6:55 PM 73.4 °F 32.0 °F 22% 30.15 in 10.0 mi North - - N/A   Clear
7:15 PM 73.4 °F 32.0 °F 22% 30.14 in 10.0 mi North - - N/A   Clear
7:35 PM 71.6 °F 33.8 °F 25% 30.15 in 10.0 mi North - - N/A   Clear
7:55 PM 69.8 °F 33.8 °F 27% 30.15 in 10.0 mi North - - N/A   Clear
8:15 PM 68.0 °F 33.8 °F 28% 30.15 in 10.0 mi North - - N/A   Clear
8:35 PM 64.4 °F 33.8 °F 32% 30.15 in 10.0 mi North - - N/A   Clear
8:55 PM 64.4 °F 35.6 °F 34% 30.16 in 10.0 mi North - - N/A   Clear
9:15 PM 60.8 °F 35.6 °F 39% 30.16 in 10.0 mi North - - N/A   Clear
9:35 PM 60.8 °F 37.4 °F 42% 30.16 in 10.0 mi North - - N/A   Clear
10:15 PM 59.0 °F 37.4 °F 45% 30.16 in 10.0 mi North - - N/A   Clear
10:55 PM 62.6 °F 33.8 °F 34% 30.15 in 10.0 mi North - - N/A   Clear
11:15 PM 62.6 °F 33.8 °F 34% 30.14 in 10.0 mi North - - N/A   Clear
11:35 PM 60.8 °F 35.6 °F 39% 30.14 in 10.0 mi North - - N/A   Clear
11:55 PM 59.0 °F 35.6 °F 42% 30.14 in 10.0 mi North - - N/A   Clear